Time,TemperatureF,DewpointF,PressureIn,WindDirection,WindDirectionDegrees,WindSpeedMPH,WindSpeedGustMPH,Humidity,HourlyPrecipIn,Conditions,Clouds,dailyrainin,SoftwareType,DateUTC
2013-02-17 00:01:00,26.0,-8.0,30.31,North,0,0.0,0.0,22,0.00,,,0.00,,2013-02-17 07:01:00,
2013-02-17 00:11:00,26.0,-9.0,30.30,North,0,0.0,0.0,20,0.00,,,0.00,,2013-02-17 07:11:00,
2013-02-17 00:21:00,26.0,-9.0,30.30,North,0,0.0,0.0,20,0.00,,,0.00,,2013-02-17 07:21:00,
2013-02-17 00:31:00,26.0,-13.0,30.29,North,0,0.0,0.0,17,0.00,,,0.00,,2013-02-17 07:31:00,
2013-02-17 00:41:00,26.0,-13.0,30.29,North,0,0.0,0.0,17,0.00,,,0.00,,2013-02-17 07:41:00,
2013-02-17 00:52:00,27.0,-13.0,30.29,North,0,0.0,0.0,16,0.00,,,0.00,,2013-02-17 07:52:00,
2013-02-17 01:01:00,26.0,-13.0,30.28,North,0,0.0,0.0,17,0.00,,,0.00,,2013-02-17 08:01:00,
2013-02-17 01:21:00,26.0,-13.0,30.27,North,0,0.0,0.0,17,0.00,,,0.00,,2013-02-17 08:21:00,
2013-02-17 01:31:00,26.0,-3.0,30.27,North,0,0.0,0.0,28,0.00,,,0.00,,2013-02-17 08:31:00,
2013-02-17 01:41:00,26.0,-3.0,30.27,North,0,0.0,0.0,28,0.00,,,0.00,,2013-02-17 08:41:00,
2013-02-17 01:52:00,26.0,-8.0,30.26,North,0,0.0,0.0,22,0.00,,,0.00,,2013-02-17 08:52:00,
2013-02-17 02:01:00,26.0,-9.0,30.25,North,0,0.0,0.0,20,0.00,,,0.00,,2013-02-17 09:01:00,
2013-02-17 02:21:00,25.0,-7.0,30.24,North,0,0.0,0.0,24,0.00,,,0.00,,2013-02-17 09:21:00,
2013-02-17 02:31:00,25.0,-9.0,30.24,North,0,0.0,0.0,21,0.00,,,0.00,,2013-02-17 09:31:00,
2013-02-17 02:41:00,25.0,-9.0,30.24,North,0,0.0,0.0,21,0.00,,,0.00,,2013-02-17 09:41:00,
2013-02-17 02:52:00,26.0,-8.0,30.24,North,0,0.0,0.0,22,0.00,,,0.00,,2013-02-17 09:52:00,
2013-02-17 03:01:00,25.0,-8.0,30.23,North,0,0.0,0.0,23,0.00,,,0.00,,2013-02-17 10:01:00,
2013-02-17 03:11:00,25.0,-8.0,30.23,North,0,0.0,0.0,23,0.00,,,0.00,,2013-02-17 10:11:00,
2013-02-17 03:21:00,25.0,-9.0,30.21,North,0,0.0,0.0,21,0.00,,,0.00,,2013-02-17 10:21:00,
2013-02-17 03:31:00,25.0,-10.0,30.20,North,0,0.0,0.0,20,0.00,,,0.00,,2013-02-17 10:31:00,
2013-02-17 03:41:00,25.0,-10.0,30.20,North,0,0.0,0.0,20,0.00,,,0.00,,2013-02-17 10:41:00,
2013-02-17 03:52:00,25.0,-5.0,30.20,North,0,0.0,0.0,26,0.00,,,0.00,,2013-02-17 10:52:00,
2013-02-17 04:01:00,25.0,-8.0,30.18,North,0,0.0,0.0,22,0.00,,,0.00,,2013-02-17 11:01:00,
2013-02-17 04:11:00,25.0,-8.0,30.18,North,0,0.0,0.0,22,0.00,,,0.00,,2013-02-17 11:11:00,
2013-02-17 04:21:00,24.0,-10.0,30.18,North,0,0.0,0.0,21,0.00,,,0.00,,2013-02-17 11:21:00,
2013-02-17 04:32:00,24.0,-10.0,30.17,North,0,0.0,0.0,21,0.00,,,0.00,,2013-02-17 11:32:00,
2013-02-17 04:41:00,24.0,-10.0,30.17,North,0,0.0,0.0,21,0.00,,,0.00,,2013-02-17 11:41:00,
2013-02-17 04:52:00,24.0,-8.0,30.16,North,0,0.0,0.0,23,0.00,,,0.00,,2013-02-17 11:52:00,
2013-02-17 05:02:00,24.0,-7.0,30.16,North,0,0.0,0.0,24,0.00,,,0.00,,2013-02-17 12:02:00,
2013-02-17 05:11:00,24.0,-7.0,30.16,North,0,0.0,0.0,24,0.00,,,0.00,,2013-02-17 12:11:00,
2013-02-17 05:22:00,23.0,-6.0,30.16,North,0,0.0,0.0,27,0.00,,,0.00,,2013-02-17 12:22:00,
2013-02-17 05:31:00,23.0,-5.0,30.15,North,0,0.0,0.0,28,0.00,,,0.00,,2013-02-17 12:31:00,
2013-02-17 05:42:00,23.0,-5.0,30.15,North,0,0.0,0.0,28,0.00,,,0.00,,2013-02-17 12:42:00,
2013-02-17 05:52:00,23.0,-5.0,30.14,North,0,0.0,0.0,28,0.00,,,0.00,,2013-02-17 12:52:00,
2013-02-17 06:01:00,22.0,-5.0,30.13,North,0,0.0,0.0,30,0.00,,,0.00,,2013-02-17 13:01:00,
2013-02-17 06:21:00,22.0,-4.0,30.13,North,0,0.0,0.0,31,0.00,,,0.00,,2013-02-17 13:21:00,
2013-02-17 06:32:00,22.0,-3.0,30.13,North,0,0.0,0.0,33,0.00,,,0.00,,2013-02-17 13:32:00,
2013-02-17 06:41:00,22.0,-3.0,30.13,North,0,0.0,0.0,33,0.00,,,0.00,,2013-02-17 13:41:00,
2013-02-17 06:52:00,22.0,-1.0,30.12,North,0,0.0,0.0,35,0.00,,,0.00,,2013-02-17 13:52:00,
2013-02-17 07:01:00,22.0,0.0,30.11,North,0,0.0,0.0,37,0.00,,,0.00,,2013-02-17 14:01:00,
2013-02-17 07:11:00,22.0,0.0,30.11,North,0,0.0,0.0,37,0.00,,,0.00,,2013-02-17 14:11:00,
2013-02-17 07:21:00,22.0,0.0,30.11,North,0,0.0,0.0,37,0.00,,,0.00,,2013-02-17 14:21:00,
2013-02-17 07:32:00,21.0,0.0,30.11,North,0,0.0,0.0,39,0.00,,,0.00,,2013-02-17 14:32:00,
2013-02-17 07:42:00,21.0,0.0,30.11,North,0,0.0,0.0,39,0.00,,,0.00,,2013-02-17 14:42:00,
2013-02-17 07:52:00,21.0,0.0,30.11,North,0,0.0,0.0,39,0.00,,,0.00,,2013-02-17 14:52:00,
2013-02-17 08:01:00,21.0,1.0,30.11,North,0,0.0,0.0,40,0.00,,,0.00,,2013-02-17 15:01:00,
2013-02-17 08:11:00,21.0,1.0,30.11,North,0,0.0,0.0,40,0.00,,,0.00,,2013-02-17 15:11:00,
2013-02-17 08:21:00,21.0,1.0,30.09,North,0,0.0,0.0,40,0.00,,,0.00,,2013-02-17 15:21:00,
2013-02-17 08:31:00,21.0,1.0,30.09,North,0,0.0,0.0,40,0.00,,,0.00,,2013-02-17 15:31:00,
2013-02-17 08:41:00,21.0,1.0,30.09,North,0,0.0,0.0,40,0.00,,,0.00,,2013-02-17 15:41:00,
2013-02-17 08:52:00,22.0,1.0,30.09,North,0,0.0,0.0,40,0.00,,,0.00,,2013-02-17 15:52:00,
2013-02-17 09:01:00,22.0,1.0,30.09,North,0,0.0,0.0,39,0.00,,,0.00,,2013-02-17 16:01:00,
2013-02-17 09:11:00,22.0,1.0,30.09,North,0,0.0,0.0,39,0.00,,,0.00,,2013-02-17 16:11:00,
2013-02-17 09:21:00,22.0,1.0,30.09,North,0,0.0,0.0,39,0.00,,,0.00,,2013-02-17 16:21:00,
2013-02-17 09:31:00,23.0,1.0,30.10,North,0,0.0,0.0,38,0.00,,,0.00,,2013-02-17 16:31:00,
2013-02-17 09:41:00,23.0,1.0,30.10,North,0,0.0,0.0,38,0.00,,,0.00,,2013-02-17 16:41:00,
2013-02-17 09:52:00,23.0,1.0,30.09,North,0,0.0,0.0,38,0.00,,,0.00,,2013-02-17 16:52:00,
2013-02-17 10:02:00,23.0,1.0,30.09,North,0,0.0,0.0,37,0.00,,,0.00,,2013-02-17 17:02:00,
2013-02-17 10:11:00,23.0,1.0,30.09,North,0,0.0,0.0,37,0.00,,,0.00,,2013-02-17 17:11:00,
2013-02-17 10:21:00,24.0,2.0,30.09,North,0,0.0,0.0,38,0.00,,,0.00,,2013-02-17 17:21:00,
2013-02-17 10:31:00,24.0,2.0,30.09,North,0,0.0,0.0,37,0.00,,,0.00,,2013-02-17 17:31:00,
2013-02-17 10:41:00,24.0,2.0,30.09,North,0,0.0,0.0,37,0.00,,,0.00,,2013-02-17 17:41:00,
2013-02-17 10:52:00,24.0,2.0,30.09,North,0,0.0,0.0,38,0.00,,,0.00,,2013-02-17 17:52:00,
2013-02-17 11:01:00,24.0,2.0,30.09,North,0,0.0,0.0,38,0.00,,,0.00,,2013-02-17 18:01:00,
2013-02-17 11:11:00,24.0,2.0,30.09,North,0,0.0,0.0,38,0.00,,,0.00,,2013-02-17 18:11:00,
2013-02-17 11:21:00,25.0,2.0,30.06,North,0,0.0,0.0,37,0.00,,,0.00,,2013-02-17 18:21:00,
2013-02-17 11:33:00,25.0,2.0,30.06,North,0,0.0,0.0,36,0.00,,,0.00,,2013-02-17 18:33:00,
2013-02-17 11:41:00,25.0,2.0,30.06,North,0,0.0,0.0,36,0.00,,,0.00,,2013-02-17 18:41:00,
2013-02-17 11:52:00,25.0,3.0,30.06,North,0,0.0,0.0,38,0.00,,,0.00,,2013-02-17 18:52:00,
2013-02-17 12:01:00,25.0,4.0,30.06,North,0,0.0,0.0,40,0.00,,,0.00,,2013-02-17 19:01:00,
2013-02-17 12:11:00,25.0,4.0,30.06,North,0,0.0,0.0,40,0.00,,,0.00,,2013-02-17 19:11:00,
2013-02-17 12:21:00,26.0,4.0,30.06,North,0,0.0,0.0,38,0.00,,,0.00,,2013-02-17 19:21:00,
2013-02-17 12:31:00,26.0,4.0,30.05,North,0,0.0,0.0,38,0.00,,,0.00,,2013-02-17 19:31:00,
2013-02-17 12:41:00,26.0,4.0,30.05,North,0,0.0,0.0,38,0.00,,,0.00,,2013-02-17 19:41:00,
2013-02-17 12:52:00,27.0,5.0,30.04,North,0,0.0,0.0,39,0.00,,,0.00,,2013-02-17 19:52:00,
2013-02-17 13:01:00,27.0,5.0,30.03,North,0,0.0,0.0,38,0.00,,,0.00,,2013-02-17 20:01:00,
2013-02-17 13:11:00,27.0,5.0,30.03,North,0,0.0,0.0,38,0.00,,,0.00,,2013-02-17 20:11:00,
2013-02-17 13:21:00,26.0,3.0,30.02,North,0,0.0,0.0,37,0.00,,,0.00,,2013-02-17 20:21:00,
2013-02-17 13:31:00,27.0,4.0,30.03,North,0,0.0,0.0,36,0.00,,,0.00,,2013-02-17 20:31:00,
2013-02-17 13:42:00,27.0,4.0,30.03,North,0,0.0,0.0,36,0.00,,,0.00,,2013-02-17 20:42:00,
2013-02-17 13:52:00,27.0,3.0,30.01,North,0,0.0,0.0,35,0.00,,,0.00,,2013-02-17 20:52:00,
2013-02-17 14:01:00,27.0,4.0,30.00,North,0,0.0,0.0,37,0.00,,,0.00,,2013-02-17 21:01:00,
2013-02-17 14:11:00,27.0,4.0,30.00,North,0,0.0,0.0,37,0.00,,,0.00,,2013-02-17 21:11:00,
2013-02-17 14:21:00,27.0,5.0,30.00,North,0,0.0,0.0,38,0.00,,,0.00,,2013-02-17 21:21:00,
2013-02-17 14:31:00,26.0,2.0,29.99,North,0,0.0,0.0,35,0.00,,,0.00,,2013-02-17 21:31:00,
2013-02-17 14:41:00,26.0,2.0,29.99,North,0,0.0,0.0,35,0.00,,,0.00,,2013-02-17 21:41:00,
2013-02-17 14:52:00,27.0,4.0,29.98,North,0,0.0,0.0,37,0.00,,,0.00,,2013-02-17 21:52:00,
2013-02-17 15:01:00,27.0,4.0,29.99,North,0,0.0,0.0,36,0.00,,,0.00,,2013-02-17 22:01:00,
2013-02-17 15:11:00,27.0,4.0,29.99,North,0,0.0,0.0,36,0.00,,,0.00,,2013-02-17 22:11:00,
2013-02-17 15:21:00,28.0,7.0,29.99,North,0,0.0,0.0,40,0.00,,,0.00,,2013-02-17 22:21:00,
2013-02-17 15:32:00,27.0,4.0,29.98,North,0,0.0,0.0,36,0.00,,,0.00,,2013-02-17 22:32:00,
2013-02-17 15:41:00,27.0,4.0,29.98,North,0,0.0,0.0,36,0.00,,,0.00,,2013-02-17 22:41:00,
2013-02-17 15:52:00,28.0,5.0,29.97,North,0,0.0,0.0,37,0.00,,,0.00,,2013-02-17 22:52:00,
2013-02-17 16:01:00,27.0,4.0,29.99,North,0,0.0,0.0,37,0.00,,,0.00,,2013-02-17 23:01:00,
2013-02-17 16:11:00,27.0,4.0,29.99,North,0,0.0,0.0,37,0.00,,,0.00,,2013-02-17 23:11:00,
2013-02-17 16:21:00,28.0,6.0,29.98,North,0,0.0,0.0,38,0.00,,,0.00,,2013-02-17 23:21:00,
2013-02-17 16:31:00,27.0,5.0,29.98,North,0,0.0,0.0,38,0.00,,,0.00,,2013-02-17 23:31:00,
2013-02-17 16:41:00,27.0,5.0,29.98,North,0,0.0,0.0,38,0.00,,,0.00,,2013-02-17 23:41:00,
2013-02-17 16:52:00,27.0,6.0,29.98,North,0,0.0,0.0,41,0.00,,,0.00,,2013-02-17 23:52:00,
2013-02-17 17:01:00,26.0,6.0,29.99,North,0,0.0,0.0,42,0.00,,,0.00,,2013-02-18 00:01:00,
2013-02-17 17:11:00,26.0,6.0,29.99,North,0,0.0,0.0,42,0.00,,,0.00,,2013-02-18 00:11:00,
2013-02-17 17:22:00,27.0,8.0,29.98,North,0,0.0,0.0,44,0.00,,,0.00,,2013-02-18 00:22:00,
2013-02-17 17:31:00,26.0,8.0,29.98,North,0,0.0,0.0,45,0.00,,,0.00,,2013-02-18 00:31:00,
2013-02-17 17:41:00,26.0,8.0,29.98,North,0,0.0,0.0,45,0.00,,,0.00,,2013-02-18 00:41:00,
2013-02-17 17:52:00,25.0,7.0,29.99,North,0,0.0,0.0,46,0.00,,,0.00,,2013-02-18 00:52:00,
2013-02-17 18:01:00,24.0,7.0,29.99,North,0,0.0,0.0,48,0.00,,,0.00,,2013-02-18 01:01:00,
2013-02-17 18:11:00,24.0,7.0,29.99,North,0,0.0,0.0,48,0.00,,,0.00,,2013-02-18 01:11:00,
2013-02-17 18:21:00,23.0,8.0,29.97,North,0,0.0,0.0,51,0.00,,,0.00,,2013-02-18 01:21:00,
2013-02-17 18:31:00,21.0,7.0,29.98,North,0,0.0,0.0,53,0.00,,,0.00,,2013-02-18 01:31:00,
2013-02-17 18:41:00,21.0,7.0,29.98,North,0,0.0,0.0,53,0.00,,,0.00,,2013-02-18 01:41:00,
2013-02-17 18:51:00,20.0,6.0,29.98,North,0,0.0,0.0,54,0.00,,,0.00,,2013-02-18 01:51:00,
2013-02-17 19:01:00,20.0,6.0,29.98,North,0,0.0,0.0,54,0.00,,,0.00,,2013-02-18 02:01:00,
2013-02-17 19:11:00,20.0,6.0,29.98,North,0,0.0,0.0,54,0.00,,,0.00,,2013-02-18 02:11:00,
2013-02-17 19:21:00,20.0,6.0,29.99,North,0,0.0,0.0,53,0.00,,,0.00,,2013-02-18 02:21:00,
2013-02-17 19:31:00,19.0,4.0,30.00,North,0,0.0,0.0,52,0.00,,,0.00,,2013-02-18 02:31:00,
2013-02-17 19:41:00,19.0,4.0,30.00,North,0,0.0,0.0,52,0.00,,,0.00,,2013-02-18 02:41:00,
2013-02-17 19:52:00,19.0,5.0,29.98,North,0,0.0,0.0,53,0.00,,,0.00,,2013-02-18 02:52:00,
2013-02-17 20:01:00,18.0,4.0,29.98,North,0,0.0,0.0,53,0.00,,,0.00,,2013-02-18 03:01:00,
2013-02-17 20:11:00,18.0,4.0,29.98,North,0,0.0,0.0,53,0.00,,,0.00,,2013-02-18 03:11:00,
2013-02-17 20:21:00,18.0,4.0,29.97,North,0,0.0,0.0,53,0.00,,,0.00,,2013-02-18 03:21:00,
2013-02-17 20:31:00,17.0,4.0,29.98,North,0,0.0,0.0,55,0.00,,,0.00,,2013-02-18 03:31:00,
2013-02-17 20:41:00,17.0,4.0,29.98,North,0,0.0,0.0,55,0.00,,,0.00,,2013-02-18 03:41:00,
2013-02-17 20:52:00,17.0,4.0,29.99,North,0,0.0,0.0,56,0.00,,,0.00,,2013-02-18 03:52:00,
2013-02-17 21:01:00,16.0,3.0,29.98,North,0,0.0,0.0,56,0.00,,,0.00,,2013-02-18 04:01:00,
2013-02-17 21:11:00,16.0,3.0,29.98,North,0,0.0,0.0,56,0.00,,,0.00,,2013-02-18 04:11:00,
2013-02-17 21:21:00,16.0,3.0,30.00,North,0,0.0,0.0,56,0.00,,,0.00,,2013-02-18 04:21:00,
2013-02-17 21:32:00,16.0,3.0,30.00,North,0,0.0,0.0,57,0.00,,,0.00,,2013-02-18 04:32:00,
2013-02-17 21:41:00,16.0,3.0,30.00,North,0,0.0,0.0,57,0.00,,,0.00,,2013-02-18 04:41:00,
2013-02-17 21:52:00,16.0,3.0,29.99,North,0,0.0,0.0,57,0.00,,,0.00,,2013-02-18 04:52:00,
2013-02-17 22:01:00,16.0,4.0,30.00,North,0,0.0,0.0,58,0.00,,,0.00,,2013-02-18 05:01:00,
2013-02-17 22:11:00,16.0,4.0,30.00,North,0,0.0,0.0,58,0.00,,,0.00,,2013-02-18 05:11:00,
2013-02-17 22:21:00,16.0,4.0,30.00,North,0,0.0,0.0,58,0.00,,,0.00,,2013-02-18 05:21:00,
2013-02-17 22:31:00,16.0,4.0,30.01,North,0,0.0,0.0,58,0.00,,,0.00,,2013-02-18 05:31:00,
2013-02-17 22:41:00,16.0,4.0,30.01,North,0,0.0,0.0,58,0.00,,,0.00,,2013-02-18 05:41:00,
2013-02-17 22:52:00,16.0,4.0,30.00,North,0,0.0,0.0,59,0.00,,,0.00,,2013-02-18 05:52:00,
2013-02-17 23:01:00,15.0,4.0,30.01,North,0,0.0,0.0,60,0.00,,,0.00,,2013-02-18 06:01:00,
2013-02-17 23:11:00,15.0,4.0,30.01,North,0,0.0,0.0,60,0.00,,,0.00,,2013-02-18 06:11:00,
2013-02-17 23:21:00,15.0,3.0,30.01,North,0,0.0,0.0,59,0.00,,,0.00,,2013-02-18 06:21:00,
2013-02-17 23:31:00,15.0,3.0,30.01,North,0,0.0,0.0,59,0.00,,,0.00,,2013-02-18 06:31:00,
2013-02-17 23:41:00,16.0,4.0,30.02,North,0,0.0,0.0,59,0.00,,,0.00,,2013-02-18 06:41:00,
2013-02-17 23:51:00,16.0,4.0,30.02,North,0,0.0,0.0,59,0.00,,,0.00,,2013-02-18 06:51:00,